Theta_e
354 352 351 354 350 350 353 354 351 351 352 350 349 349 345 343 340 329 326 326 318 315 313 308 315 323 325 326 326 326 327 327 329 327 326 324 321 317 313 317 322 322 325
351 351 348 351 352 351 352 353 352 351 352 351 350 349 344 342 335 323 329 332 325 310 311 310 315 320 326 326 324 324 322 322 327 326 325 321 319 319 319 317 319 320 323
353 352 348 351 350 351 352 352 354 352 351 350 350 348 344 342 331 319 321 321 314 311 312 314 317 319 321 325 326 323 322 321 325 324 324 320 321 319 318 318 318 320 324
353 354 351 352 351 352 355 355 356 354 353 351 350 345 344 337 323 317 321 324 313 314 317 317 317 316 321 319 323 323 323 320 321 321 323 321 320 320 320 318 316 317 320
354 354 354 354 356 356 357 355 355 354 352 351 347 344 340 329 321 317 318 312 315 317 316 315 314 313 313 314 316 318 321 322 322 321 321 321 321 320 317 315 318 316 320
355 355 354 356 358 358 357 357 355 353 352 348 345 342 335 322 318 318 313 313 319 317 314 312 308 308 308 315 315 307 312 319 320 321 319 317 312 308 307 306 316 314 319
356 357 358 358 359 358 358 357 354 352 351 347 344 341 327 315 319 323 313 313 316 317 318 314 317 315 313 313 310 313 312 311 315 314 314 313 311 315 309 307 315 315 316
359 359 360 359 359 359 358 354 353 350 348 345 343 337 321 314 321 323 319 314 316 317 316 320 321 317 318 316 316 318 319 319 319 318 316 315 316 316 313 313 315 316 316
360 360 361 359 360 359 357 354 352 350 348 343 341 330 317 314 321 321 317 317 318 320 317 321 321 320 317 312 315 320 319 319 319 318 317 316 316 316 317 315 315 314 313
361 361 362 361 360 359 356 354 351 349 346 341 333 324 316 314 318 320 315 317 319 320 317 314 312 310 311 314 310 319 319 319 319 318 318 317 316 315 317 318 316 316 315
361 362 363 361 361 360 354 353 350 347 342 337 327 319 316 315 318 317 315 317 320 322 323 323 322 316 316 310 309 311 313 316 317 318 318 317 315 318 319 319 318 316 315
362 363 363 362 361 359 354 351 345 346 340 332 322 318 316 315 318 315 311 313 324 325 323 324 323 321 316 313 312 312 312 313 314 314 314 316 318 319 318 317 317 317 315
359 359 362 359 358 357 352 348 345 343 335 328 320 317 315 315 317 314 311 310 322 323 323 322 322 323 317 313 315 315 315 316 316 316 316 317 317 318 319 317 317 317 316
360 359 359 358 355 352 349 346 344 339 332 325 318 316 315 315 315 312 310 310 318 323 322 320 320 319 319 316 316 317 318 319 318 319 319 319 317 319 320 318 317 317 315
358 359 357 354 353 350 347 346 343 337 335 329 322 317 314 314 314 311 311 312 314 322 320 320 320 320 319 316 317 320 321 320 320 319 319 320 320 319 319 318 317 316 316
354 355 354 352 349 347 344 341 338 336 333 325 319 317 314 315 318 322 317 313 316 313 313 315 316 315 316 318 322 322 322 322 321 321 321 320 319 319 319 318 316 316 316
350 351 350 349 348 344 341 340 338 334 327 322 320 320 319 320 322 322 322 323 324 319 318 315 315 319 322 324 322 321 321 320 321 320 321 321 320 319 320 318 316 316 315
348 349 349 348 346 341 341 340 336 335 331 324 324 321 322 321 321 322 323 323 324 324 323 323 322 322 320 319 319 321 320 320 321 321 319 318 318 319 317 316 316 314 314
347 346 347 346 343 341 340 338 335 331 327 326 322 322 320 320 321 321 322 324 325 323 321 320 320 319 317 320 321 321 321 319 320 320 319 318 318 317 316 315 317 314 315
345 346 344 344 342 339 339 335 334 332 330 325 323 321 319 321 322 322 323 324 321 320 320 315 315 318 321 320 321 322 322 322 320 319 318 318 317 315 316 315 314 314 313
343 342 344 343 340 339 337 336 335 332 329 325 322 321 320 319 320 322 322 322 322 316 317 316 317 317 318 320 323 322 322 322 320 320 317 315 316 316 316 315 313 312 312
339 341 342 340 338 337 337 336 335 329 326 324 321 320 319 319 318 317 315 318 315 315 316 317 319 321 322 323 322 322 321 320 319 317 316 315 313 312 311 311 310 311 311
339 341 341 339 338 339 338 333 331 327 325 324 322 320 320 320 321 319 319 322 323 323 323 322 322 323 323 321 320 320 318 317 316 314 313 313 312 311 310 310 310 310 311
341 341 341 341 340 338 335 332 328 325 324 323 323 323 322 321 320 322 321 321 323 323 322 322 321 320 319 319 320 317 316 315 314 313 313 312 311 310 310 309 308 308 309
341 340 342 341 339 337 332 327 323 322 322 322 322 321 320 323 323 322 321 322 322 321 320 318 318 317 317 315 313 314 314 314 313 313 312 311 310 309 306 303 301 302 306
339 338 337 339 337 331 326 323 323 323 324 324 322 322 322 323 322 322 322 322 321 320 319 319 318 317 315 314 313 313 314 313 313 312 312 310 309 306 303 302 301 302 307
Wind_Speed
28 28 27 30 31 28 25 24 23 23 23 21 19 17 15 13 13 14 14 10 7 8 6 9 11 11 9 9 7 8 6 5 6 8 2 5 10 9 6 11 3 2 1
27 30 28 28 32 33 31 27 28 26 24 21 19 17 16 13 13 13 14 13 11 9 7 10 13 13 13 10 7 8 6 6 9 4 3 5 8 9 7 7 6 5 4
34 31 31 30 31 33 34 30 29 27 25 23 22 19 17 14 12 14 16 13 9 9 9 9 9 12 11 10 9 7 6 6 9 5 3 3 7 5 2 1 1 5 3
37 34 34 34 33 32 35 33 31 27 25 24 22 19 16 14 13 14 13 12 10 10 10 9 8 8 10 10 10 9 9 10 11 6 6 12 7 3 6 6 8 3 2
37 35 37 35 34 36 36 36 34 28 26 24 20 18 16 15 15 13 13 13 12 12 11 7 8 7 7 7 5 6 10 10 8 8 8 7 6 8 13 6 7 2 3
40 36 35 36 37 40 38 38 34 30 28 22 19 18 15 14 15 12 13 15 13 12 9 9 8 7 6 6 4 3 10 11 10 7 2 5 9 7 7 4 3 1 5
40 37 39 39 43 43 39 36 33 31 28 22 21 19 16 17 17 12 11 14 14 12 8 8 8 7 6 4 6 6 7 8 8 2 2 7 4 10 9 3 3 2 3
39 39 43 45 47 44 39 33 32 32 27 25 22 20 19 19 16 17 13 12 13 11 9 9 5 7 5 4 6 7 5 2 2 4 7 5 6 7 8 6 4 4 12
41 43 47 47 48 45 40 36 33 32 29 27 23 22 19 20 20 20 16 15 14 11 12 13 12 9 6 6 8 8 6 5 1 6 5 5 6 7 7 3 6 9 9
42 45 45 47 47 44 41 37 35 31 29 26 24 21 19 21 21 22 21 19 17 11 9 9 9 6 3 6 10 13 12 10 5 5 7 9 10 12 14 12 8 3 9
41 43 45 45 42 42 38 36 33 31 27 26 25 23 22 21 20 21 24 22 18 14 10 8 6 8 0 2 8 11 10 11 13 13 14 15 11 10 13 15 15 7 5
39 41 41 40 41 43 37 35 30 29 28 28 27 24 23 22 21 19 25 24 21 19 22 15 12 10 4 3 3 5 6 6 6 8 9 9 7 10 9 7 7 8 8
31 34 37 36 39 38 37 34 32 30 29 29 28 26 25 24 22 20 24 25 26 17 14 12 11 16 7 5 4 5 8 9 10 11 9 11 9 10 15 12 11 11 11
28 32 33 36 35 36 33 30 31 29 31 31 30 27 25 24 22 22 25 25 29 23 16 11 13 13 10 9 11 10 11 12 15 17 16 15 15 14 17 15 15 14 13
26 30 34 35 35 35 33 31 29 27 29 30 29 26 26 27 21 21 24 25 26 26 22 17 15 15 16 16 16 15 14 13 17 17 19 16 17 21 20 18 19 19 20
23 30 35 36 36 38 34 27 26 26 26 26 24 22 23 24 15 13 15 18 17 19 21 23 23 20 19 17 18 20 21 20 19 17 19 18 19 19 19 18 15 19 19
25 29 38 40 36 36 27 25 31 31 27 24 23 20 21 24 20 18 18 19 18 21 21 19 20 19 18 17 19 19 20 21 19 21 19 19 20 18 20 20 18 19 18
29 32 37 35 38 31 25 29 31 32 33 32 28 25 25 23 24 25 23 26 27 26 24 23 20 19 20 21 21 22 23 24 20 19 21 22 19 18 17 17 16 15 21
27 33 35 35 31 27 26 28 28 29 30 28 30 29 25 25 23 21 23 34 30 26 23 23 23 22 21 21 23 24 20 23 21 20 22 21 16 18 18 17 15 15 20
25 31 30 28 29 26 27 30 28 27 24 30 29 30 27 24 24 24 26 28 27 26 24 23 23 22 22 22 23 23 22 26 23 21 16 17 20 20 19 17 15 15 14
28 30 27 28 27 27 26 29 30 26 23 20 23 29 31 34 29 26 26 26 25 25 25 23 23 25 25 23 23 19 21 20 19 17 19 14 20 22 18 16 14 15 16
20 27 30 30 25 25 26 28 27 27 20 20 18 19 14 18 19 24 26 27 25 25 24 23 24 17 17 17 19 15 19 16 16 14 15 12 12 12 12 13 14 16 18
23 27 31 30 30 27 29 29 29 24 24 28 26 23 23 10 9 14 20 18 14 17 19 20 22 20 13 13 17 17 17 16 14 15 16 17 16 15 15 16 15 13 17
22 27 30 29 32 28 30 30 27 26 28 29 22 18 26 19 18 23 20 20 20 19 16 14 12 12 13 12 16 18 17 17 18 18 18 19 20 20 21 22 19 23 20
17 17 26 28 26 30 30 28 29 30 28 27 25 28 27 21 29 30 25 22 21 16 15 14 12 13 16 17 17 16 16 16 17 19 16 17 19 23 25 25 23 23 27
21 19 21 24 29 31 31 29 26 23 18 16 19 23 22 19 25 25 20 20 18 19 15 15 16 16 14 16 18 20 18 15 15 16 19 20 23 22 19 18 17 18 17
Wind_Direction
217 220 216 212 213 210 212 212 213 217 222 225 236 239 247 238 228 224 236 239 234 237 225 188 195 168 160 161 173 190 187 184 141 112 64 30 358 351 38 57 82 354 278
215 219 218 211 212 209 212 214 219 221 221 227 234 243 241 234 230 224 231 234 247 215 183 169 171 184 184 189 191 201 211 198 146 127 135 12 5 27 38 56 46 13 1
213 218 217 213 211 211 215 214 219 222 227 230 233 242 236 235 229 226 224 222 219 187 171 165 177 183 190 187 178 186 148 164 167 136 145 141 133 123 307 315 68 18 102
213 216 220 216 212 210 212 214 219 225 227 229 237 230 228 228 224 219 218 224 203 179 178 183 185 181 198 196 199 199 186 144 155 177 183 177 203 252 301 300 249 250 45
212 217 221 217 213 211 211 214 222 225 221 234 226 219 220 221 224 220 218 202 189 186 193 191 195 194 189 193 198 178 183 178 174 171 168 189 231 297 310 303 270 288 165
211 216 216 213 214 214 216 217 219 219 221 225 218 215 215 219 223 217 206 194 194 203 194 169 171 165 165 177 206 208 199 221 220 212 202 322 316 330 340 298 254 241 181
213 214 212 210 213 212 216 218 216 217 224 216 214 212 211 211 209 208 210 199 198 201 205 195 169 142 140 140 136 122 104 111 80 100 1 23 64 46 14 107 46 60 329
212 213 211 210 211 209 213 226 221 218 221 216 212 209 210 208 200 210 220 198 194 196 184 166 190 206 245 240 180 144 132 104 1 5 30 59 59 45 56 44 36 21 4
210 210 213 210 208 208 216 225 225 217 217 213 210 209 208 206 198 204 212 196 192 198 196 193 212 230 242 230 208 189 190 199 276 232 298 310 329 323 324 32 63 42 11
208 211 212 210 210 212 227 220 216 218 215 209 206 214 212 209 205 206 206 202 196 202 213 200 220 226 220 213 204 206 206 222 235 214 238 263 295 297 294 284 288 347 345
211 211 212 212 211 219 220 216 213 214 210 208 208 210 216 210 208 210 204 201 201 212 223 214 212 188 5 241 212 219 231 244 247 259 263 275 285 321 308 264 268 296 322
214 213 214 216 214 215 216 220 217 212 207 207 208 207 214 217 214 212 205 202 201 211 229 234 237 211 217 295 212 197 213 241 260 274 273 234 280 305 308 268 263 292 300
224 232 216 212 210 214 217 218 211 207 206 208 208 209 214 213 213 212 209 207 203 210 209 236 230 214 214 224 219 227 245 253 267 281 267 258 271 299 285 279 283 285 287
235 231 221 216 213 214 216 219 213 204 203 208 211 214 215 217 214 209 204 207 203 210 202 182 185 200 228 251 254 259 263 277 284 282 279 285 277 281 298 275 282 278 271
231 230 215 212 216 217 222 214 214 212 216 216 219 220 218 219 212 213 208 207 206 209 215 213 217 226 244 242 254 269 278 279 280 286 279 286 281 270 267 258 284 271 275
236 223 225 218 216 210 204 205 209 209 213 220 231 231 225 230 198 191 200 202 204 208 216 223 231 238 242 250 270 276 273 275 284 283 288 280 294 259 264 251 288 272 271
232 231 216 213 213 206 202 211 205 203 210 216 215 217 216 213 219 211 204 201 200 199 209 215 218 229 240 256 269 273 283 284 282 279 278 282 276 264 250 260 283 279 277
232 236 222 218 218 204 211 216 209 209 204 204 210 212 214 217 220 229 225 213 210 214 219 224 232 241 247 260 265 272 287 281 286 277 268 283 268 248 257 272 283 294 293
234 228 226 222 212 215 217 218 213 215 214 207 206 213 223 224 223 224 212 215 215 219 229 236 246 252 261 273 272 269 264 269 273 282 268 281 264 274 274 276 278 279 286
233 229 221 221 217 209 212 212 214 216 217 214 218 219 216 213 207 197 199 208 220 229 242 242 240 248 259 278 280 281 271 273 273 268 260 258 271 272 278 268 267 264 254
224 224 225 225 216 214 215 213 216 217 217 210 223 226 225 229 221 217 223 227 239 242 233 238 247 254 265 271 283 266 263 268 276 275 269 280 278 261 257 257 257 270 271
229 219 216 203 206 213 218 213 211 197 210 212 214 217 218 231 228 225 239 243 242 236 239 246 253 268 268 269 265 259 280 268 272 264 257 254 240 241 251 265 275 276 273
219 213 212 203 209 212 212 201 195 192 204 210 201 207 216 205 204 191 223 218 222 231 237 250 254 246 274 255 249 251 255 265 263 255 251 256 255 258 262 263 262 270 280
206 208 212 214 210 205 203 194 188 189 186 176 173 179 183 210 208 212 232 236 244 230 240 235 218 216 230 238 241 251 262 278 275 269 271 273 274 275 277 272 278 277 267
218 219 220 214 212 206 192 184 187 192 193 193 217 220 229 234 234 231 235 253 242 231 212 214 224 247 266 272 274 278 283 286 276 272 271 273 278 285 288 285 279 272 267
215 213 211 212 205 187 180 178 187 205 218 211 212 211 219 248 254 229 226 237 239 217 229 260 270 271 271 270 269 275 277 276 274 280 285 292 296 296 290 285 279 265 264